User: anonymous   Login
Location: *
(33.8649°S, 62.1526°E)
Time: 00:04:05
(UTC+00:00)
Language:

Cosmos 773 Rocket - Orbit

View from above orbital plane
View from above orbital plane
View from above satellite
View from above satellite

Ground track
Ground track

The orbit data is extracted from the following two-line orbital elements,

1  8344U 75094B   21103.18190954 -.00000041  00000-0 -45394-5 0  9995
2  8344  74.0565  73.0726 0022137 341.3535  18.6806 14.39177092386506
Epoch (UTC): 13 April 2021 04:21:56
Eccentricity: 0.0022137
inclination: 74.0565°
perigee height: 745 km
apogee height: 777 km
right ascension of ascending node: 73.0726°
argument of perigee: 341.3535°
revolutions per day: 14.39177092
mean anomaly at epoch: 18.6806°
orbit number at epoch: 38650

The dashed part of the orbit path shows where the satellite is in the earth's shadow,  

DLR